Regional Weather Roundup
Issued by NWS Binghamton, NY

Home | Current Version | Previous Version | Text Only | Print | Product List | Glossary On
Versions: 1 2 3 4 5 6 7 8 9 10 11 12 13 14 15 16 17 18 19 20 21 22 23 24 25 26 27 28 29 30 31 32 33 34 35 36 37 38 39 40 41 42 43 44 45 46 47 48 49 50
926
ASUS41 KBGM 250010
RWRBGM

REGIONAL WEATHER ROUNDUP
NATIONAL WEATHER SERVICE BINGHAMTON NY
800 PM EDT WED AUG 24 2016

Note: "fair" indicates few or no clouds below 12,000 feet with no
significant weather and/or obstructions to visibility.

* = Station(s) that does not report precipitation, such as rain,
snow, etc, also no thunder or fog.

NYZ009-015>018-022>025-036-037-044>046-055>057-062-250100
...Central New York...

CITY           SKY/WX    TMP DP  RH WIND       PRES   REMARKS
Binghamton     CLEAR     73  58  59 S7        30.16S
Cortland       FAIR      73  59  60 S5        30.13S
Dansville      PTCLDY    77  63  61 S5        30.07S
Elmira         CLEAR     75  62  64 VRB3      30.09F
Ithaca         PTCLDY    75  61  61 SE9       30.12F
Hamilton       CLEAR     75  63  64 S6        30.13S
Hornell        CLEAR     72  63  73 CALM      30.14R
Monticello     CLEAR     72  61  68 MISG      30.20S
Norwich        CLEAR     72  61  68 CALM      30.14S
Oneonta        CLEAR     73  55  53 CALM      30.18S
Penn Yan       CLOUDY    79  61  53 S6        30.10R
Rome           CLEAR     75  64  68 SE7       30.09F
Sidney         CLEAR     72  66  83 S5        30.15S
Syracuse       MOCLDY    79  59  50 S10       30.06S
$$

PAZ038>040-043-044-047-048-072-250100
...Northeast Pennsylvania...

CITY           SKY/WX    TMP DP  RH WIND       PRES   REMARKS
Hazleton       CLEAR     72  63  73 S3        30.24S
Scranton       CLEAR     76  62  62 VRB3      30.17R
$$
&&
KEY
WCI = Wind Chill Index
VSB = Visibility
HX  = Heat Index
$$




USA.gov is the U.S. government's official web portal to all federal, state and local government web resources and services.